Location: Camerons Lookout
(40.9833°S, 175.9333°E)
Time: 12:01:25
(UTC+00:00)

Cosmos 2369 - Pass Details

Date: 14 January 2026
Orbit: 839 x 853 km, 71.0° (Epoch: 15 February)

Event Time Altitude Azimuth Distance (km) Brightness Sun altitude
Exits shadow 11:33:30 49° 89° (E) 1,092 4.1 -26.6°
Drops below altitude 10° 11:38:32 10° 146° (SE) 2,496 6.7 -26.8°
Sets 11:41:04 0° 151° (SSE) 3,440 7.6 -26.9°
